TimeCEST,TemperatureF,Dew PointF,Humidity,Sea Level PressureIn,VisibilityMPH,Wind Direction,Wind SpeedMPH,Gust SpeedMPH,PrecipitationIn,Events,Conditions,WindDirDegrees,DateUTC
2:00 AM,52,47,79,30.12,16,WSW,2.3,,,,,240,2013-04-12 00:00:00
6:00 AM,46.4,44.6,93,30.09,6.2,South,3.5,-,N/A,,Partly Cloudy,170,2013-04-12 04:00:00
6:30 AM,46.4,44.6,93,30.06,5.6,Variable,3.5,-,N/A,,Partly Cloudy,0,2013-04-12 04:30:00
7:00 AM,44.6,44.6,100,30.09,6.2,Variable,1.2,-,N/A,,Partly Cloudy,0,2013-04-12 05:00:00
7:30 AM,44.6,42.8,93,30.09,5.0,Variable,1.2,-,N/A,,Partly Cloudy,0,2013-04-12 05:30:00
8:00 AM,44,42,88,30.14,4,SW,1.2,,,,Mist,230,2013-04-12 06:00:00
8:00 AM,44.6,44.6,100,30.09,3.7,Calm,Calm,-,N/A,,Scattered Clouds,0,2013-04-12 06:00:00
8:30 AM,48.2,48.2,100,30.09,3.7,Variable,1.2,-,N/A,,Mostly Cloudy,0,2013-04-12 06:30:00
9:00 AM,50.0,50.0,100,30.09,3.7,Calm,Calm,-,N/A,,Mostly Cloudy,0,2013-04-12 07:00:00
9:30 AM,51.8,50.0,94,30.12,3.7,Calm,Calm,-,N/A,,Scattered Clouds,0,2013-04-12 07:30:00
10:00 AM,53.6,51.8,94,30.12,3.1,Calm,Calm,-,N/A,,Scattered Clouds,0,2013-04-12 08:00:00
10:30 AM,55.4,51.8,88,30.12,3.7,Calm,Calm,-,N/A,,Mostly Cloudy,0,2013-04-12 08:30:00
11:00 AM,57.2,51.8,82,30.12,3.7,Variable,1.2,-,N/A,,Mostly Cloudy,0,2013-04-12 09:00:00
11:30 AM,59.0,51.8,77,30.12,6.2,Variable,1.2,-,N/A,,Partly Cloudy,0,2013-04-12 09:30:00
12:00 PM,60.8,51.8,72,30.12,6.2,Variable,1.2,-,N/A,,Partly Cloudy,0,2013-04-12 10:00:00
12:30 PM,62.6,42.8,48,30.12,6.2,Variable,1.2,-,N/A,,Partly Cloudy,0,2013-04-12 10:30:00
1:00 PM,62.6,44.6,52,30.12,6.2,Variable,1.2,-,N/A,,Partly Cloudy,0,2013-04-12 11:00:00
1:30 PM,64.4,46.4,52,30.09,6.2,Variable,1.2,-,N/A,,Partly Cloudy,0,2013-04-12 11:30:00
2:00 PM,66,43,31,30.06,11,NNW,1.2,,,,Scattered Clouds,340,2013-04-12 12:00:00
2:00 PM,66.2,44.6,46,30.09,6.2,Variable,1.2,-,N/A,,Partly Cloudy,0,2013-04-12 12:00:00
2:30 PM,66.2,48.2,52,30.09,6.2,West,4.6,-,N/A,,Partly Cloudy,270,2013-04-12 12:30:00
3:00 PM,68.0,42.8,40,30.06,6.2,Variable,2.3,-,N/A,,Partly Cloudy,0,2013-04-12 13:00:00
3:30 PM,68.0,46.4,46,30.06,6.2,Variable,3.5,-,N/A,,Partly Cloudy,0,2013-04-12 13:30:00
4:00 PM,68.0,42.8,40,30.06,6.2,NW,5.8,-,N/A,,Partly Cloudy,310,2013-04-12 14:00:00
5:00 PM,69.8,50.0,49,30.04,6.2,WNW,8.1,-,N/A,,Partly Cloudy,290,2013-04-12 15:00:00
5:30 PM,69.8,50.0,49,30.04,6.2,West,3.5,-,N/A,,Partly Cloudy,280,2013-04-12 15:30:00
6:00 PM,71.6,46.4,41,30.01,6.2,Variable,3.5,-,N/A,,Partly Cloudy,0,2013-04-12 16:00:00
6:30 PM,69.8,46.4,43,30.01,6.2,WSW,4.6,-,N/A,,Partly Cloudy,250,2013-04-12 16:30:00
7:00 PM,69.8,48.2,46,30.01,-9999.0,West,4.6,-,N/A,,Clear,260,2013-04-12 17:00:00
7:30 PM,66.2,48.2,52,30.01,-9999.0,West,6.9,-,N/A,,Clear,270,2013-04-12 17:30:00
8:00 PM,66,48,41,29.98,16,West,9.2,,,,Overcast,270,2013-04-12 18:00:00
8:00 PM,64.4,48.2,56,30.01,-9999.0,West,8.1,-,N/A,,Clear,270,2013-04-12 18:00:00
8:30 PM,64.4,50.0,59,30.04,-9999.0,West,9.2,-,N/A,,Clear,270,2013-04-12 18:30:00
9:00 PM,60.8,50.0,68,30.04,-9999.0,West,6.9,-,N/A,,Clear,270,2013-04-12 19:00:00
9:30 PM,57.2,48.2,72,30.04,-9999.0,West,5.8,-,N/A,,Clear,260,2013-04-12 19:30:00
10:00 PM,59.0,48.2,67,30.06,-9999.0,West,5.8,-,N/A,,Clear,260,2013-04-12 20:00:00
10:30 PM,57.2,48.2,72,30.06,-9999.0,West,3.5,-,N/A,,Clear,270,2013-04-12 20:30:00
11:00 PM,55.4,48.2,77,30.06,-9999.0,Variable,2.3,-,N/A,,Clear,0,2013-04-12 21:00:00
11:30 PM,55.4,48.2,77,30.09,-9999.0,SW,5.8,-,N/A,,Clear,220,2013-04-12 21:30:00